Location: Unspecified
(0.0000°N, 0.0000°E)
Time: 01:25:34
(UTC+00:00)

Tiros 1 - Pass Details

Date: 23 November 2019
Orbit: 630 x 664 km, 48.4° (Epoch: 11 December)

Event Time Altitude Azimuth Distance (km) Brightness Sun altitude
Rises 20:34:00 0° 339° (NNW) 2,930 - -38.7°
Reaches altitude 10° 20:36:33 10° 350° (N) 2,030 - -39.3°
Maximum altitude 20:40:39 30° 51° (NE) 1,152 - -40.2°
Drops below altitude 10° 20:44:49 10° 113° (ESE) 2,056 - -41.1°
Sets 20:47:23 0° 123° (ESE) 2,975 - -41.7°
